• MPC Preparation (Info)

  • MPEC 2010-C66 : 2010 CG19

    The following Minor Planet Electronic Circular may be linked-to from your own Web pages, but must not otherwise be redistributed electronically.

    A form allowing access to any MPEC is at the bottom of this page.


    Read MPEC 2010-C65 Read MPEC 2010-C67


    M.P.E.C. 2010-C66                                Issued 2010 Feb. 15, 12:40 UT
    
         The Minor Planet Electronic Circulars contain information on unusual
             minor planets and routine data on comets.  They are published
       on behalf of Commission 20 of the International Astronomical Union by the
              Minor Planet Center, Smithsonian Astrophysical Observatory,
                              Cambridge, MA 02138, U.S.A.
    
                 Prepared using the Tamkin Foundation Computer Network
    
                                  MPC@CFA.HARVARD.EDU
              URL http://www.cfa.harvard.edu/iau/mpc.html  ISSN 1523-6714
    
                                       2010 CG19
    
    Observations:
         K10C19G* C2010 02 14.28339 10 18 36.30 +08 31 39.3          19.8   EC066704
         K10C19G  C2010 02 14.29587 10 18 34.60 +08 32 35.4          20.0   EC066704
         K10C19G  C2010 02 14.30868 10 18 32.83 +08 33 32.5          20.5   EC066704
         K10C19G  C2010 02 14.32096 10 18 31.24 +08 34 26.3          20.4   EC066704
         K10C19G  C2010 02 15.07986 10 16 50.69 +09 30 29.4          19.5 R EC066473
         K10C19G  C2010 02 15.08263 10 16 50.31 +09 30 42.3          19.5 R EC066473
         K10C19G  C2010 02 15.36903 10 16 12.28 +09 52 02.6          19.4 R EC066651
         K10C19G  C2010 02 15.37011 10 16 12.19 +09 52 08.5          19.7 R EC066651
         K10C19G  C2010 02 15.37120 10 16 12.01 +09 52 11.8          19.4 R EC066651
         K10C19G  C2010 02 15.42020 10 16 05.17 +09 55 51.0          19.5 R EC066H01
         K10C19G  C2010 02 15.42770 10 16 04.13 +09 56 24.4          19.5 R EC066H01
         K10C19G  C2010 02 15.43638 10 16 02.94 +09 57 03.5          19.5 R EC066H01
         K10C19G  C2010 02 15.44601 10 16 01.60 +09 57 46.3          19.5 R EC066H01
    
    Observer details:
    473 Remanzacco.  Observers L. Donato, V. Gonano, E. Guido, G. Sostero.  0.45-m
        f/4.4 Newtonian reflector + CCD.
    651 Grasslands Observatory, Tucson.  Observer J. E. McGaha.  0.62-m f/5.1
        Newtonian reflector + CCD.
    704 Lincoln Laboratory ETS, New Mexico.  Observers M. Blythe, G. Spitz,
        R. Brungard, J. Paige, P. Festler.  1.0-m f/2.15 reflector + CCD.
    H01 Magdalena Ridge Observatory, Socorro.  Observers W. H. Ryan, E. V. Ryan.
        Measurer W. H. Ryan.  2.4-m f/8.9 reflector + CCD.
    
    Orbital elements:
    2010 CG19                                                Earth MOID = 0.0967 AU
    Epoch 2010 Jan. 4.0 TT = JDT 2455200.5                  MPC
    M 189.42471              (2000.0)            P               Q
    n   0.62571132     Peri.  154.56554     +0.64275978     +0.64182410
    a   1.3537965      Node   148.88272     -0.76460375     +0.50374864
    e   0.1950264      Incl.   54.02703     +0.04733877     -0.57818608
    P   1.58           H   19.6           G   0.15           U   9
    Residuals in seconds of arc
    100214 704  0.0   0.9-    100215 473  0.2-  0.3+    100215 H01  0.1-  0.0
    100214 704  0.1-  0.1+    100215 651  0.3-  0.5-    100215 H01  0.1+  0.4+
    100214 704  0.5-  0.6+    100215 651  0.6+  0.6+    100215 H01  0.1-  0.3+
    100214 704  0.7+  0.2+    100215 651  0.1+  1.0-
    100215 473  0.1-  0.3-    100215 H01  0.0   0.1+
    
    Ephemeris:
    2010 CG19                a,e,i = 1.35, 0.20, 54                  q = 1.0898
    Date    TT    R. A. (2000) Decl.     Delta      r     Elong.  Phase     V
    2010 02 13    10 21.36   +06 58.1    0.604    1.585   169.0     6.8    20.0
    2010 02 23    09 58.10   +19 28.3    0.590    1.572   168.6     7.1    20.0
    2010 03 05    09 33.18   +31 00.2    0.625    1.557   147.7    19.9    20.5
    2010 03 15    09 10.95   +39 45.0    0.700    1.540   129.8    29.7    21.1
    2010 03 25    08 54.99   +45 39.4    0.798    1.521   115.4    36.3    21.5
    2010 04 04    08 46.75   +49 30.2    0.904    1.500   103.8    40.4    21.9
    
    Timothy B. Spahr             (C) Copyright 2010 MPC           M.P.E.C. 2010-C66
    

    Read MPEC 2010-C65 Read MPEC 2010-C67


    MPEC number:

    Enter an MPEC number in one of the following forms:

    • 1997-B01 (the full form)
    • J97B01 (the packed version of the full form)
    • B01 (the abbreviated form)